SCP
0 0 0 0 0 0 0 0 0 0 0 0 0 0 0 0 0 0 0 0 0 0 0 0 0 0 0 0 0 0 0 0 0 0 0 0 0 0 0 0 0 0 0 0
0 0 0 0 0 0 0 0 0 0 0 0 0 0 0 0 0 0 0 0 0 0 0 0 0 0 0 0 0 0 0 0 0 0 0 0 0 0 0 0 0 0 0 0
0 0 0 0 0 0 0 0 0 0 0 0 0 0 0 0 0 0 0 0 0 0 0 0 0 0 0 0 0 0 0 0 0 0 0 0 0 0 0 0 0 0 0 0
0 0 0 0 0 0 0 0 0 0 0 0 0 0 0 0 0 0 0 0 0 0 0 0 0 0 0 0 0 0 0 0 0 0 0 0 0 0 0 0 0 0 0 0
0 0 0 0 0 0 0 0 0 0 0 0 0 0 0 0 0 0 0 0 0 0 0 0 0 0 0 0 0 0 0 0 0 0 0 0 0 0 0 0 0 0 0 0
0 0 0 0 0 0 0 0 0 0 0 0 0 0 0 0 0 0 0 0 0 0 0 0 0 0 0 0 0 0 0 0 0 0 0 0 0 0 0 0 0 0 0 0
0 0 0 0 0 0 0 0 0 0 0 0 0 0 0 0 0 0 0 0 0 0 0 0 0 0 0 0 0 0 0 0 0 0 0 0 0 0 0 0 0 0 0 0
0 0 0 0 0 0 0 0 0 0 0 0 0 0 0 0 0 0 0 0 0 0 0 0 0 0 0 0 0 0 0 0 0 0 0 0 0 0 0 0 0 0 0 0
0 0 0 0 0 0 0 0 0 0 0 0 0 0 0 0 0 0 0 0 0 0 0 0 0 0 0 0 0 0 0 0 0 0 0 0 0 0 0 0 0 0 0 0
0 0 0 0 0 0 0 0 0 0 0 0 0 0 0 0 0 0 0 0 0 0 0 0 0 0 0 0 0 0 0 0 0 0 0 0 0 0 0 0 0 0 0 0
0 0 0 0 0 0 0 0 0 0 0 0 0 0 0 0 0 0 0 0 0 0 0 0 0 0 0 0 0 0 0 0 0 0 0 0 0 0 0 0 0 0 0 0
0 0 0 0 0 0 0 0 0 0 0 0 0 0 0 0 0 0 0 0 0 0 0 0 0 0 0 0 0 0 0 0 0 0 0 0 0 0 0 0 0 0 0 0
0 0 0 0 0 0 0 0 0 0 0 0 0 0 0 0 0 0 0 0 0 0 0 0 0 0 0 0 0 0 0 0 0 0 0 0 0 0 0 0 0 0 0 0
0 0 0 0 0 0 0 0 0 0 0 0 0 0 0 0 0 0 0 0 0 0 0 0 0 0 0 0 0 0 0 0 0 0 0 0 0 0 0 0 0 0 0 0
0 0 0 0 0 0 0 0 0 0 0 0 0 0 0 0 0 0 0 0 0 0 0 0 0 0 0 0 0 0 0 0 0 0 0 0 0 0 0 0 0 0 0 0
0 0 0 0 0 0 0 0 0 0 0 0 0 0 0 0 0 0 0 0 0 0 0 0 0 0 0 0 0 0 0 0 0 0 0 0 0 0 0 0 0 0 0 0
0 0 0 0 0 0 0 0 0 0 0 0 0 0 0 0 0 0 0 0 0 0 0 0 0 0 0 0 0 0 0 0 0 0 0 0 0 0 0 0 0 0 0 0
0 0 0 0 0 0 0 0 0 0 0 0 0 0 0 0 0 0 0 0 0 0 0 0 0 0 0 0 0 0 0 0 0 0 0 0 0 0 0 0 0 0 0 0
0 0 0 0 0 0 0 0 0 0 0 0 0 0 0 0 0 0 0 0 0 0 0 0 0 0 0 0 0 0 0 0 0 0 0 0 0 0 0 0 0 0 0 0
0 0 0 0 0 0 0 0 0 0 0 0 0 0 0 0 0 0 0 0 0 0 0 0 0 0 0 0 0 0 0 0 0 0 0 0 0 0 0 0 0 0 0 0
0 0 0 0 0 0 0 0 0 0 0 0 0 0 0 0 0 0 0 0 0 0 0 0 0 0 0 0 0 0 0 0 0 0 0 0 0 0 0 0 0 0 0 0
0 0 0 0 0 0 0 0 0 0 0 0 0 0 0 0 0 0 0 0 0 0 0 0 0 0 0 0 0 0 0 0 0 0 0 0 0 0 0 0 0 0 0 0
0 0 0 0 0 0 0 0 0 0 0 0 0 0 0 0 0 0 0 0 0 0 0 0 0 0 0 0 0 0 0 0 0 0 0 0 0 0 0 0 0 0 0 0
0 0 0 0 0 0 0 0 0 0 0 0 0 0 0 0 0 0 0 0 0 0 0 0 0 0 0 0 0 0 0 0 0 -0 0 0 0 0 0 0 0 0 0 0
0 0 0 0 0 0 0 0 0 0 0 0 0 0 0 0 0 0 0 0 0 0 0 0 0 0 0 0 0 0 0 0 0 0 0 0 0 0 0 0 0 0 0 0
0 0 0 0 0 0 0 0 0 0 0 0 0 0 0 0 0 0 0 0 0 0 0 0 0 0 0 0 0 0 0 0 0 0 0 0 0 0 0 0 0 0 0 0
0 0 0 0 0 0 0 0 0 0 0 0 0 0 0 0 0 0 0 0 0 0 0 0 0 0 0 0 0 0 0 0 0 0 0 0 0 0 0 0 0 -0 0 0
Wind_Speed
5 4 4 4 7 8 6 9 10 9 9 10 9 8 6 5 6 6 5 5 5 4 4 4 4 4 4 4 3 3 3 2 1 0 1 1 1 2 2 2 2 2 2 2
1 2 3 2 4 7 5 5 5 4 7 5 3 5 6 7 8 7 6 6 5 5 5 5 4 4 4 4 3 3 3 2 2 2 2 2 2 2 3 3 3 3 3 3
2 1 4 2 5 7 5 5 7 8 9 5 6 8 9 9 9 8 7 6 6 5 5 5 4 4 5 4 4 4 4 3 3 3 2 2 3 3 3 3 3 4 3 4
3 4 4 8 3 4 5 3 4 4 4 6 6 5 4 5 8 8 7 6 5 5 5 4 4 4 5 5 4 4 4 4 3 3 3 3 4 4 3 3 4 4 4 4
4 4 2 3 1 4 5 3 3 4 3 5 8 7 3 2 5 6 6 6 5 5 5 5 5 5 6 5 4 4 4 3 3 3 4 4 4 3 3 4 5 4 5 5
5 5 6 6 2 1 3 3 3 5 8 9 7 5 3 3 6 7 7 6 6 6 7 6 5 5 6 5 4 3 3 3 4 4 4 5 4 4 3 4 5 5 6 6
5 3 6 5 2 2 5 7 3 6 9 9 5 5 6 8 7 7 8 8 7 7 6 5 5 6 6 5 4 3 4 5 5 4 5 5 5 5 5 6 6 6 7 6
5 4 6 2 1 5 6 1 3 6 6 8 8 9 10 10 9 9 9 8 8 8 6 5 5 6 6 5 3 4 5 6 5 5 5 5 6 6 5 6 7 6 6 6
5 6 3 2 3 2 2 3 3 5 7 10 11 10 10 10 9 8 8 8 7 8 7 5 5 5 7 5 4 6 7 7 6 6 6 5 6 6 5 5 5 5 5 5
1 2 1 1 1 1 2 4 5 7 9 9 11 11 11 10 9 8 7 7 7 8 7 6 5 5 6 5 5 7 7 7 6 7 7 6 5 5 4 4 4 5 5 4
1 2 2 3 2 2 4 7 8 8 7 9 12 11 10 10 9 8 6 6 6 7 7 6 6 6 5 5 6 7 7 6 6 6 7 7 7 6 5 5 3 5 4 4
5 4 3 2 1 2 5 6 8 9 8 7 8 10 10 9 8 7 7 6 6 6 7 6 6 6 5 4 6 7 7 6 5 5 5 6 7 8 13 10 12 11 8 6
3 1 2 2 3 3 4 6 7 8 9 9 8 9 10 8 7 8 8 8 7 6 6 6 6 6 5 4 6 7 7 6 5 5 5 5 5 6 6 8 13 13 11 10
2 3 2 2 3 5 7 8 10 10 9 8 8 9 9 9 8 8 7 7 7 7 6 6 6 5 4 5 6 7 6 7 6 5 5 5 5 5 5 6 5 5 8 10
1 1 4 5 6 7 7 9 11 10 9 9 8 9 9 9 8 7 7 7 8 7 6 6 6 5 4 5 7 7 6 5 5 5 5 5 5 5 5 6 6 5 4 5
3 4 5 7 7 7 8 9 10 9 9 8 8 8 8 9 8 8 7 7 8 7 5 5 5 4 5 6 7 6 5 8 7 5 5 5 5 5 5 5 5 4 4 3
5 5 5 6 6 6 5 6 7 9 9 9 8 9 9 10 9 8 7 7 7 6 5 5 5 4 5 6 6 5 5 6 8 6 5 5 5 5 5 5 5 4 3 3
4 5 6 7 7 7 6 7 8 9 8 9 9 9 10 10 9 7 7 7 8 7 5 4 5 6 6 6 5 5 5 5 4 5 5 5 5 5 5 5 5 5 3 3
5 6 6 6 7 7 8 8 8 8 8 9 10 9 9 9 8 8 7 8 7 6 3 4 7 7 6 6 7 5 5 6 6 5 5 6 5 5 4 4 4 4 4 3
6 7 8 8 8 8 9 9 9 9 8 9 10 10 10 8 8 9 8 7 4 2 3 5 6 6 6 6 7 5 6 6 6 6 5 5 5 5 4 4 4 4 3 3
8 9 9 9 9 8 8 9 9 9 8 9 10 10 9 8 7 7 7 6 3 4 5 7 5 5 5 5 7 5 6 6 6 5 5 5 4 4 4 4 4 3 3 3
7 8 9 10 10 9 7 8 9 10 9 9 10 10 10 9 8 7 6 4 3 4 5 4 4 6 7 7 5 6 6 6 5 5 4 4 4 4 3 3 3 3 2 2
7 8 9 10 10 9 9 8 8 9 9 9 9 9 9 7 5 6 4 2 3 5 5 4 6 10 10 7 5 6 6 6 5 4 4 3 3 3 3 3 2 2 2 2
8 8 8 9 10 10 9 8 7 7 8 8 7 7 8 7 4 3 4 5 6 7 5 6 9 10 8 5 5 5 4 4 4 4 4 3 3 3 2 2 2 2 2 2
8 9 9 10 9 7 8 8 9 9 9 7 7 6 5 4 5 4 4 5 7 7 5 6 9 8 5 4 4 4 4 3 4 4 3 3 3 2 2 2 2 2 2 2
8 7 6 6 6 6 6 6 6 6 6 6 5 4 5 4 5 5 5 6 7 7 5 4 4 5 4 4 4 3 3 3 3 3 3 3 3 2 2 2 2 2 1 1
8 7 7 7 6 5 5 6 6 6 6 6 6 4 5 5 5 5 6 5 5 5 4 3 3 3 3 3 3 3 2 2 3 3 2 2 2 2 2 2 1 2 2 2
Wind_Direction
208 198 162 169 172 169 169 174 176 215 219 236 214 197 186 163 146 139 140 139 137 136 126 117 114 112 112 111 107 107 103 103 129 165 143 134 125 122 115 111 119 118 110 101
215 198 165 165 175 175 184 175 192 195 239 241 176 148 155 158 154 155 161 157 147 144 135 129 127 124 114 113 110 106 101 89 77 83 91 110 113 108 96 90 90 93 95 94
208 202 110 222 209 182 187 190 172 197 224 170 163 175 177 170 163 163 160 155 154 156 148 139 134 130 127 114 105 98 89 74 65 71 83 92 98 92 93 95 95 90 88 91
132 113 181 238 236 179 174 201 201 215 212 179 176 154 144 154 156 156 150 146 149 147 134 122 118 116 109 102 99 96 88 78 72 73 75 83 85 82 81 87 90 90 85 85
119 149 234 281 194 161 162 231 206 186 149 122 119 87 58 127 145 150 147 141 141 133 123 117 118 121 114 106 102 96 86 76 69 78 82 82 86 87 91 96 91 84 81 81
120 137 204 233 255 226 120 261 224 167 152 145 128 131 205 154 125 121 118 119 120 115 111 111 110 116 112 107 101 94 88 81 76 78 85 83 80 82 84 93 94 91 79 72
133 162 246 249 275 118 159 234 195 162 156 152 157 163 139 119 108 109 111 112 113 110 107 107 111 112 107 103 98 96 97 93 87 86 90 88 80 72 81 88 87 84 79 67
135 152 237 287 117 172 207 209 134 141 143 134 125 114 113 114 113 113 108 107 107 105 97 91 102 109 106 100 95 95 96 94 93 91 92 89 87 79 81 90 90 85 81 69
179 200 242 272 248 266 176 144 135 135 133 130 124 122 120 117 114 110 109 107 104 107 100 86 83 102 109 102 100 101 96 91 89 87 85 87 93 93 87 88 94 91 87 81
214 277 309 330 348 33 108 130 127 131 132 129 126 129 125 121 116 112 108 110 110 111 107 95 83 88 99 102 101 101 97 91 89 88 82 75 73 76 86 91 100 100 97 93
246 275 20 13 28 74 84 100 107 107 113 127 129 129 129 125 124 120 112 111 113 116 115 106 96 91 93 98 102 98 95 93 88 84 86 76 67 55 62 58 82 106 105 109
207 214 179 204 156 101 109 114 119 114 102 105 120 123 121 121 121 120 118 114 111 111 111 105 98 92 86 93 105 107 102 97 96 95 92 92 91 74 54 65 70 74 85 97
203 168 159 139 92 91 103 105 106 108 116 114 109 114 117 117 116 116 115 113 114 114 110 106 100 92 84 92 100 104 108 106 105 105 104 102 102 102 91 64 60 62 68 82
152 120 103 102 106 97 102 103 99 94 95 103 107 107 110 111 110 110 113 117 114 109 106 105 101 93 89 97 100 101 104 106 108 107 107 104 100 97 99 102 87 60 51 70
34 121 141 121 106 103 107 110 106 105 105 104 108 113 117 117 114 111 112 112 107 103 102 104 102 97 95 102 103 105 104 103 103 104 102 102 101 99 97 97 97 93 83 66
92 87 109 118 121 121 123 124 122 121 119 114 114 114 114 113 109 106 107 112 114 112 110 108 105 106 108 107 104 101 100 108 105 108 107 105 105 105 102 102 100 98 94 91
139 138 135 134 130 124 121 125 129 128 126 123 124 121 114 110 106 104 103 104 106 105 104 109 111 108 106 108 108 106 104 108 107 104 105 109 109 107 107 107 106 101 88 80
168 161 154 149 143 131 119 117 122 125 128 127 124 119 118 118 116 114 110 105 97 87 76 87 105 107 105 105 104 106 106 103 102 105 105 105 106 107 107 108 110 107 97 83
132 130 125 125 127 127 123 121 119 119 121 124 122 118 115 113 114 113 109 104 103 98 83 91 105 104 104 107 107 105 108 107 101 99 102 106 106 106 108 109 109 108 108 102
115 119 120 117 116 120 121 119 117 116 119 122 118 112 108 108 111 111 103 92 84 103 114 108 107 100 99 103 103 105 109 111 110 107 106 108 108 107 108 111 114 116 116 113
120 122 122 120 115 112 116 120 120 118 119 122 120 117 115 111 108 109 106 95 64 82 99 102 101 100 96 102 101 104 107 109 111 114 114 113 110 108 108 111 114 116 118 117
121 122 121 120 117 112 109 110 112 114 116 112 112 114 113 110 106 96 87 101 111 103 102 100 101 105 106 104 101 103 105 107 107 109 111 113 116 117 115 115 116 119 125 128
118 119 119 120 119 115 108 106 109 113 116 117 119 120 117 114 115 117 110 98 111 109 103 104 111 111 109 103 104 105 107 110 112 115 119 122 125 129 130 130 131 134 140 146
111 110 111 112 113 112 109 105 103 103 104 105 109 116 118 112 93 81 106 115 111 110 103 111 113 111 108 104 107 109 111 114 117 119 121 123 124 129 134 139 146 156 160 165
110 108 110 113 113 113 113 112 104 100 98 95 92 91 95 108 118 119 111 109 112 109 104 107 111 111 106 107 111 114 117 122 126 129 129 133 139 143 145 151 161 172 180 184
105 104 104 103 108 113 116 115 111 110 109 104 92 88 90 93 103 107 104 104 106 106 104 106 112 111 109 112 116 119 120 122 126 132 140 142 146 149 156 164 173 185 195 199
96 97 97 94 90 96 105 109 112 113 115 116 108 98 99 99 100 102 103 104 105 102 102 104 109 112 113 113 112 111 113 118 126 132 136 140 150 165 178 183 188 192 193 191